Zurück zum Katalog

FENGYUN 1C DEB

AktivSSO
NORAD 35122·DEBRIS·🇨🇳 China

Gestartet May 10, 1999 von Taiyuan Satellite Launch Center

Loading…

Nächste Überflüge (nächste 24 Stunden)

TLE

AktuellSource: Space-Track

Epoche: Sep 14, 2026, 07:11 UTC

1 35122U 99025DLA 26257.29977209  .00000307  00000-0  18208-3 0  9997
2 35122  98.6590 272.4490 0026086  92.2998 268.1163 14.14400825677625

Verfolge FENGYUN 1C DEB in Echtzeit mit AllMySat

Download on the App Store